map of YEI home
Great Circle Mapper logo
YEI - Airport
Location
City:  Bursa, Turkey
Name:Yenisehir
ICAO / IATA:LTBR / YEI

Details
Type:Airport (Aerodrome, Airfield)
Use:Public/Civil, Military
Latitude:4015'19"N (40.255208)
Longitude:2933'45"E (29.562569)
Datum:WGS 1984
Elevation:764 ft (233 m)
Runways:2
Longest:9818 × 148 ft (2993 × 45 m), paved

Time
Time Zone:UTC+2 (DST+3)
Local Time:

Weather
METAR:LTBR 230520Z 10009KT 9999 FEW035 BKN100 18/09 Q1007 NOSIG RMK RWY07 10009KT
TAF:LTBR 230440Z 2306/2406 12013KT 9999 SCT035 BKN100
TEMPO 2315/2319 24018G28KT
TEMPO 2322/2402 -SHRA BKN030 BKN090
TEMPO 2402/2406 -SHRA BKN030 BKN090

Related Locations
Nearby:
Farthest:NTAV: 11291 mi / 18170 km
Raivavae, Tubuai Islands, Austral Islands, PF

Find:

   beyond  
but within

Other Information
Maps:
NOTAMs:
Links:
Sources:

  
flag of Turkey   

Sectional Chart

Flight Planning
at skyvector.com

Satellite Image

Google Maps Satellite View

 

Copyright © 2004-2014 Karl L. Swartz. All rights reserved.
The Great Circle Mapper name and logo are trademarks of the Great Circle Mapper.
All other trademarks mentioned herein belong to their respective owners.
Please see credits for attibutions and further copyright information.

  Follow gcmap on Facebook Follow gcmap on Twitter

hCard Microformat

Geo Microformat